FW8483 Weather Reports


time (UTC)temp
C
wind
direction
speed
KPH
gust
KPH
rain 1hr
cm
rain 24hr
cm
rain mn
cm
humidity
%
barometer
mb
20260902063019 24 130 0.0 0.0 0.00 0.00 0.00 96 1016.9
20260902062505 25 130 0.0 0.0 0.00 0.00 0.00 96 1016.9
20260902062006 25 130 0.0 0.0 0.00 0.00 0.00 96 1017.0
20260902061531 25 130 0.0 0.0 0.00 0.00 0.00 96 1017.0
20260902061008 25 130 0.0 0.0 0.00 0.00 0.00 96 1017.0
20260902060512 25 130 0.0 0.0 0.00 0.00 0.00 96 1017.0
20260902060031 25 130 0.0 0.0 0.00 0.00 0.00 96 1017.0
20260902055516 25 130 0.0 0.0 0.00 0.00 0.00 96 1017.0
20260902055012 25 130 0.0 0.0 0.00 0.00 0.00 96 1017.1
20260902054538 25 130 0.0 0.0 0.00 0.00 0.00 96 1017.2
20260902054015 24 126 0.0 0.0 0.00 0.00 0.00 96 1017.1
20260902053514 24 93 0.0 3.2 0.00 0.00 0.00 95 1017.1
20260902053033 24 93 0.0 3.2 0.00 0.00 0.00 95 1017.1
20260902052504 25 93 0.0 3.2 0.00 0.00 0.00 96 1017.1
20260902052004 25 93 0.0 3.2 0.00 0.00 0.00 95 1017.0
20260902051516 25 93 3.2 3.2 0.00 0.00 0.00 95 1017.1
20260902051007 25 238 0.0 6.4 0.00 0.00 0.00 96 1017.0
20260902050507 24 116 0.0 6.4 0.00 0.00 0.00 95 1017.1
20260902050046 25 94 1.6 6.4 0.00 0.00 0.00 96 1017.1
20260902045511 24 275 0.0 6.4 0.00 0.00 0.00 96 1017.1
20260902045012 24 101 4.8 6.4 0.00 0.00 0.00 95 1017.2
20260902044531 24 289 0.0 0.0 0.00 0.00 0.00 95 1017.1
20260902044014 24 102 0.0 0.0 0.00 0.00 0.00 94 1017.1
20260902043517 24 102 0.0 0.0 0.00 0.00 0.00 95 1017.1
20260902043038 24 102 0.0 0.0 0.00 0.00 0.00 95 1017.0
20260902042517 24 102 0.0 3.2 0.00 0.00 0.00 94 1017.0
20260902042017 25 281 0.0 3.2 0.00 0.00 0.00 95 1017.0
20260902041519 24 86 0.0 6.4 0.00 0.00 0.00 94 1016.9
20260902041007 25 86 4.8 6.4 0.00 0.00 0.00 94 1017.0
20260902040508 25 115 0.0 0.0 0.00 0.00 0.00 94 1017.0
20260902040019 25 115 0.0 3.2 0.00 0.00 0.00 94 1017.0
20260902035510 25 115 0.0 3.2 0.00 0.00 0.00 93 1017.0
20260902035013 25 115 0.0 3.2 0.00 0.00 0.00 94 1017.1
20260902034529 25 216 0.0 0.0 0.00 0.00 0.00 94 1017.1
20260902034017 25 216 0.0 0.0 0.00 0.00 0.00 93 1017.4
20260902033512 25 124 0.0 0.0 0.00 0.00 0.00 93 1017.4
20260902033031 25 124 0.0 0.0 0.00 0.00 0.00 93 1017.4
20260902032517 25 124 0.0 0.0 0.00 0.00 0.00 92 1017.3
20260902032018 25 124 0.0 0.0 0.00 0.00 0.00 92 1017.5
20260902031534 25 198 0.0 0.0 0.00 0.00 0.00 92 1017.5
20260902031006 25 198 0.0 0.0 0.00 0.00 0.00 91 1017.6
20260902030505 25 198 0.0 0.0 0.00 0.00 0.00 91 1017.6
20260902030019 25 198 0.0 0.0 0.00 0.00 0.00 90 1017.6
20260902025510 26 198 0.0 0.0 0.00 0.00 0.00 90 1017.4
20260902025009 26 198 0.0 0.0 0.00 0.00 0.00 90 1017.3
20260902024524 26 198 0.0 0.0 0.00 0.00 0.00 89 1017.4
20260902024015 26 198 0.0 0.0 0.00 0.00 0.00 89 1017.4
20260902023512 26 198 0.0 0.0 0.00 0.00 0.00 89 1017.4
20260902023030 26 198 0.0 0.0 0.00 0.00 0.00 89 1017.4
20260902022518 26 198 0.0 0.0 0.00 0.00 0.00 89 1017.3
20260902022017 26 184 0.0 0.0 0.00 0.00 0.00 88 1017.2
20260902021532 26 186 0.0 3.2 0.00 0.00 0.00 87 1017.2
20260902021017 26 186 0.0 3.2 0.00 0.00 0.00 87 1017.1
20260902020520 26 186 0.0 8.0 0.00 0.00 0.00 87 1017.0
20260902020015 26 178 0.0 8.0 0.00 0.00 0.00 87 1016.9
20260902015506 26 236 1.6 9.7 0.00 0.00 0.00 87 1016.9
20260902015012 26 188 0.0 9.7 0.00 0.00 0.00 87 1016.8
20260902014528 26 164 0.0 6.4 0.00 0.00 0.00 87 1016.7
20260902014011 26 256 0.0 0.0 0.00 0.00 0.00 86 1016.6
20260902013513 26 256 0.0 0.0 0.00 0.00 0.00 86 1016.5
20260902013030 26 256 0.0 0.0 0.00 0.00 0.00 84 1016.4
20260902012515 27 256 0.0 0.0 0.00 0.00 0.00 83 1016.4
20260902012014 27 256 0.0 0.0 0.00 0.00 0.00 83 1016.3
20260902011542 27 256 0.0 0.0 0.00 0.00 0.00 82 1016.3
20260902011017 27 256 0.0 0.0 0.00 0.00 0.00 83 1016.2
20260902010518 27 256 0.0 0.0 0.00 0.00 0.00 82 1016.3
20260902010104 27 256 0.0 0.0 0.00 0.00 0.00 80 1016.2
20260902005516 27 256 0.0 0.0 0.00 0.00 0.00 79 1016.3
20260902005010 28 256 0.0 0.0 0.00 0.00 0.00 79 1016.1
20260902004520 28 256 0.0 0.0 0.00 0.00 0.00 78 1016.1
20260902004011 28 256 0.0 0.0 0.00 0.00 0.00 77 1016.1
20260902003512 28 256 0.0 0.0 0.00 0.00 0.00 76 1016.0
20260902003027 28 256 0.0 0.0 0.00 0.00 0.00 76 1016.0
20260902002514 28 256 0.0 0.0 0.00 0.00 0.00 75 1016.0
20260902002013 29 256 0.0 0.0 0.00 0.00 0.00 74 1016.0
20260902001531 29 256 0.0 0.0 0.00 0.00 0.00 73 1016.1
20260902001015 30 256 0.0 0.0 0.00 0.00 0.00 73 1016.0
20260902000517 30 256 0.0 0.0 0.00 0.00 0.00 72 1016.0
20260902000042 30 256 0.0 0.0 0.00 0.00 0.00 71 1016.0
20260901235518 30 256 0.0 0.0 0.00 0.00 0.00 70 1016.0
20260901235018 30 260 0.0 0.0 0.00 0.00 0.00 70 1016.0
20260901234533 30 259 0.0 4.8 0.00 0.00 0.00 70 1016.0
20260901234007 31 96 0.0 6.4 0.00 0.00 0.00 68 1016.0
20260901233508 31 107 3.2 6.4 0.00 0.00 0.00 65 1016.0
20260901233023 31 95 4.8 6.4 0.00 0.00 0.00 65 1016.1
20260901232512 31 98 4.8 6.4 0.00 0.00 0.00 65 1016.1
20260901232014 31 110 3.2 6.4 0.00 0.00 0.00 65 1016.0
20260901231505 31 119 3.2 4.8 0.00 0.00 0.00 66 1016.0
20260901231002 32 110 3.2 4.8 0.00 0.00 0.00 65 1016.0
20260901230502 32 101 1.6 9.7 0.00 0.00 0.00 65 1015.9
20260901230009 32 90 4.8 9.7 0.00 0.00 0.00 63 1015.8
20260901225503 32 90 3.2 6.4 0.00 0.00 0.00 63 1015.9
20260901225007 32 85 4.8 9.7 0.00 0.00 0.00 62 1015.9
20260901224518 32 115 3.2 16.1 0.00 0.00 0.00 63 1016.0
20260901224007 32 96 8.0 16.1 0.00 0.00 0.00 61 1016.0
20260901223508 32 86 6.4 12.9 0.00 0.00 0.00 61 1016.0
20260901223042 32 104 6.4 12.9 0.00 0.00 0.00 62 1015.9
20260901222509 32 92 4.8 16.1 0.00 0.00 0.00 61 1015.9
20260901222016 32 60 8.0 16.1 0.00 0.00 0.00 60 1015.9
20260901221505 33 88 6.4 12.9 0.00 0.00 0.00 61 1015.8
20260901221003 33 109 4.8 12.9 0.00 0.00 0.00 60 1015.8
20260901220502 33 109 3.2 16.1 0.00 0.00 0.00 61 1015.8
20260901220006 33 71 11.3 16.1 0.00 0.00 0.00 59 1015.8
20260901215505 33 71 4.8 16.1 0.00 0.00 0.00 61 1015.8
20260901215002 33 78 6.4 19.3 0.00 0.00 0.00 57 1015.7
20260901214513 33 78 14.5 19.3 0.00 0.00 0.00 60 1015.7
20260901214006 33 100 8.0 17.7 0.00 0.00 0.00 61 1015.6
20260901213508 33 128 6.4 14.5 0.00 0.00 0.00 58 1015.6
20260901213022 33 82 4.8 17.7 0.00 0.00 0.00 59 1015.6
20260901212511 33 94 6.4 17.7 0.00 0.00 0.00 58 1015.7
20260901212011 33 21 4.8 17.7 0.00 0.00 0.00 58 1015.7
20260901211528 33 20 9.7 17.7 0.00 0.00 0.00 56 1015.6
20260901211002 33 114 8.0 16.1 0.00 0.00 0.00 58 1015.6
20260901210503 33 98 11.3 19.3 0.00 0.00 0.00 57 1015.6
20260901210008 33 96 6.4 19.3 0.00 0.00 0.00 60 1015.7
20260901205503 33 54 6.4 12.9 0.00 0.00 0.00 59 1015.7
20260901205002 33 94 8.0 17.7 0.00 0.00 0.00 57 1015.7
20260901204520 33 92 6.4 17.7 0.00 0.00 0.00 58 1015.8
20260901204006 33 88 11.3 22.5 0.00 0.00 0.00 61 1015.8
20260901203507 33 74 11.3 22.5 0.00 0.00 0.00 58 1015.8
20260901203019 33 11 1.6 14.5 0.00 0.00 0.00 57 1015.8
20260901202510 33 35 8.0 20.9 0.00 0.00 0.00 58 1015.9
20260901202009 33 107 11.3 20.9 0.00 0.00 0.00 59 1015.9
20260901201525 33 120 11.3 14.5 0.00 0.00 0.00 59 1015.9
20260901201014 33 111 3.2 17.7 0.00 0.00 0.00 60 1016.0
20260901200513 33 69 12.9 17.7 0.00 0.00 0.00 58 1016.0
20260901200015 33 46 6.4 16.1 0.00 0.00 0.00 58 1016.1
20260901195503 33 74 8.0 16.1 0.00 0.00 0.00 59 1016.2
20260901195003 33 91 8.0 19.3 0.00 0.00 0.00 62 1016.2
20260901194509 32 58 8.0 19.3 0.00 0.00 0.00 58 1016.3
20260901194006 32 87 11.3 17.7 0.00 0.00 0.00 59 1016.3
20260901193507 32 64 4.8 20.9 0.00 0.00 0.00 62 1016.5
20260901193014 32 121 12.9 20.9 0.00 0.00 0.00 61 1016.6
20260901192509 32 92 8.0 16.1 0.00 0.00 0.00 62 1016.5
20260901192008 32 73 8.0 22.5 0.00 0.00 0.00 61 1016.6
20260901191529 32 40 11.3 22.5 0.00 0.00 0.00 61 1016.7
20260901191015 32 54 8.0 22.5 0.00 0.00 0.00 67 1016.7
20260901190513 32 38 4.8 20.9 0.00 0.00 0.00 65 1016.9
20260901190032 32 66 12.9 20.9 0.00 0.00 0.00 62 1016.8
20260901185513 32 126 11.3 19.3 0.00 0.00 0.00 61 1016.9
20260901185003 32 87 11.3 17.7 0.00 0.00 0.00 60 1017.1
20260901184510 32 84 9.7 16.1 0.00 0.00 0.00 64 1017.1
20260901184006 32 94 9.7 16.1 0.00 0.00 0.00 63 1017.1
20260901183506 32 86 8.0 16.1 0.00 0.00 0.00 62 1017.2
20260901183013 32 74 4.8 17.7 0.00 0.00 0.00 61 1017.3
20260901182507 32 38 11.3 17.7 0.00 0.00 0.00 60 1017.4
20260901182008 32 51 12.9 17.7 0.00 0.00 0.00 62 1017.4
20260901181522 32 317 6.4 17.7 0.00 0.00 0.00 64 1017.5
20260901181012 32 68 8.0 17.7 0.00 0.00 0.00 67 1017.5
20260901180511 32 18 8.0 25.7 0.00 0.00 0.00 63 1017.6
20260901180032 32 17 8.0 25.7 0.00 0.00 0.00 64 1017.7
20260901175513 32 51 8.0 12.9 0.00 0.00 0.00 65 1017.7
20260901175015 32 41 4.8 16.1 0.00 0.00 0.00 64 1017.8
20260901174535 32 82 6.4 19.3 0.00 0.00 0.00 66 1017.9
20260901174007 32 328 11.3 19.3 0.00 0.00 0.00 67 1017.9
20260901173504 32 74 11.3 17.7 0.00 0.00 0.00 65 1018.0
20260901173011 31 98 8.0 16.1 0.00 0.00 0.00 63 1018.1
20260901172504 31 91 6.4 16.1 0.00 0.00 0.00 66 1018.3
20260901172008 31 67 9.7 24.1 0.00 0.00 0.00 63 1018.3
20260901171517 32 48 6.4 24.1 0.00 0.00 0.00 62 1018.2
20260901171009 31 94 16.1 24.1 0.00 0.00 0.00 65 1018.3
20260901170511 31 101 12.9 17.7 0.00 0.00 0.00 64 1018.4
20260901170036 31 61 9.7 17.7 0.00 0.00 0.00 65 1018.4
20260901165512 31 74 6.4 17.7 0.00 0.00 0.00 67 1018.4
20260901165015 31 83 6.4 16.1 0.00 0.00 0.00 66 1018.5
20260901164533 31 13 8.0 16.1 0.00 0.00 0.00 66 1018.4
20260901164015 31 58 8.0 16.1 0.00 0.00 0.00 66 1018.4
20260901163503 31 89 8.0 16.1 0.00 0.00 0.00 67 1018.4
20260901163017 31 39 9.7 16.1 0.00 0.00 0.00 70 1018.5
20260901162504 31 51 6.4 17.7 0.00 0.00 0.00 72 1018.5
20260901162004 31 74 11.3 17.7 0.00 0.00 0.00 71 1018.4
20260901161515 31 14 4.8 16.1 0.00 0.00 0.00 71 1018.5
20260901161010 31 71 11.3 16.1 0.00 0.00 0.00 72 1018.4
20260901160508 31 30 6.4 14.5 0.00 0.00 0.00 73 1018.4
20260901160032 30 56 3.2 12.9 0.00 0.00 0.00 73 1018.4
20260901155510 30 338 4.8 12.9 0.00 0.00 0.00 75 1018.5
20260901155011 30 38 6.4 12.9 0.00 0.00 0.00 73 1018.6
20260901154527 30 352 4.8 14.5 0.00 0.00 0.00 72 1018.7
20260901154017 30 51 11.3 14.5 0.00 0.00 0.00 72 1018.7
20260901153514 30 82 6.4 14.5 0.00 0.00 0.00 74 1018.7
20260901153032 30 61 6.4 14.5 0.00 0.00 0.00 74 1018.7
20260901152502 30 9 6.4 14.5 0.00 0.00 0.00 75 1018.7
20260901152003 30 86 6.4 14.5 0.00 0.00 0.00 77 1018.7
20260901151514 30 74 6.4 14.5 0.00 0.00 0.00 77 1018.7
20260901151007 29 56 8.0 14.5 0.00 0.00 0.00 76 1018.7
20260901150509 29 33 4.8 12.9 0.00 0.00 0.00 78 1018.7
20260901150021 30 48 6.4 11.3 0.00 0.00 0.00 78 1018.7
20260901145511 30 80 6.4 11.3 0.00 0.00 0.00 76 1018.7
20260901145012 29 48 3.2 8.0 0.00 0.00 0.00 78 1018.7
20260901144527 29 61 1.6 12.9 0.00 0.00 0.00 80 1018.8
20260901144015 29 5 6.4 12.9 0.00 0.00 0.00 78 1018.7
20260901143514 28 67 3.2 12.9 0.00 0.00 0.00 81 1018.6
20260901143030 28 32 6.4 12.9 0.00 0.00 0.00 81 1018.6
20260901142518 28 61 4.8 11.3 0.00 0.00 0.00 84 1018.7
20260901142017 28 26 4.8 11.3 0.00 0.00 0.00 82 1018.7
20260901141513 28 72 8.0 11.3 0.00 0.00 0.00 82 1018.6
20260901141003 28 69 4.8 9.7 0.00 0.00 0.00 82 1018.5
20260901140509 28 52 4.8 8.0 0.00 0.00 0.00 83 1018.5
20260901140022 28 69 0.0 11.3 0.00 0.00 0.00 85 1018.5
20260901135512 27 59 3.2 11.3 0.00 0.00 0.00 84 1018.5
20260901135009 27 72 4.8 9.7 0.00 0.00 0.00 85 1018.5
20260901134523 27 74 4.8 9.7 0.00 0.00 0.00 86 1018.5
20260901134013 27 113 3.2 12.9 0.00 0.00 0.00 86 1018.4
20260901133503 27 51 4.8 12.9 0.00 0.00 0.00 87 1018.3
20260901133004 27 74 8.0 12.9 0.00 0.00 0.00 86 1018.3
20260901132505 26 92 4.8 11.3 0.00 0.00 0.00 87 1018.2
20260901132005 26 42 4.8 8.0 0.00 0.00 0.00 87 1018.2
20260901131514 26 24 3.2 6.4 0.00 0.00 0.00 90 1018.2
20260901131003 26 68 3.2 6.4 0.00 0.00 0.00 89 1018.2
20260901130507 26 86 4.8 8.0 0.00 0.00 0.00 89 1018.2
20260901130016 26 53 4.8 8.0 0.00 0.00 0.00 90 1018.2
20260901125509 26 72 1.6 8.0 0.00 0.00 0.00 91 1018.3
20260901125011 25 34 1.6 8.0 0.00 0.00 0.00 91 1018.2
20260901124522 25 35 3.2 6.4 0.00 0.00 0.00 92 1018.2
20260901124012 25 67 4.8 6.4 0.00 0.00 0.00 92 1018.3
20260901123512 25 53 0.0 6.4 0.00 0.00 0.00 94 1018.2
20260901123037 25 74 3.2 6.4 0.00 0.00 0.00 94 1018.2
20260901122504 25 54 3.2 6.4 0.00 0.00 0.00 94 1018.3
20260901122003 24 75 3.2 6.4 0.00 0.00 0.00 95 1018.2
20260901121508 24 66 3.2 6.4 0.00 0.00 0.00 96 1018.3
20260901121004 24 57 0.0 4.8 0.00 0.00 0.00 96 1018.3
20260901120504 23 65 1.6 4.8 0.00 0.00 0.00 96 1018.1
20260901120015 23 13 0.0 3.2 0.00 0.00 0.00 97 1018.0
20260901115510 23 70 0.0 0.0 0.00 0.00 0.00 97 1018.0
20260901115008 23 78 0.0 0.0 0.00 0.00 0.00 97 1017.9
20260901114520 23 66 0.0 0.0 0.00 0.00 0.00 97 1017.8
20260901114009 23 57 0.0 0.0 0.00 0.00 0.00 97 1017.7
20260901113513 23 37 0.0 3.2 0.00 0.00 0.00 97 1017.7
20260901113027 23 42 0.0 3.2 0.00 0.00 0.00 97 1017.9
20260901112512 23 52 0.0 1.6 0.00 0.00 0.00 97 1017.9
20260901112018 23 52 0.0 1.6 0.00 0.00 0.00 97 1017.9
20260901111508 23 41 0.0 0.0 0.00 0.00 0.00 97 1017.9
20260901111004 23 43 0.0 0.0 0.00 0.00 0.00 97 1017.8
20260901110504 23 43 0.0 0.0 0.00 0.00 0.00 97 1017.7
20260901110019 23 43 0.0 0.0 0.00 0.00 0.00 97 1017.6
20260901105506 23 43 0.0 0.0 0.00 0.00 0.00 97 1017.5
20260901105009 23 44 0.0 0.0 0.00 0.00 0.00 97 1017.4
20260901104527 23 12 0.0 0.0 0.00 0.00 0.00 97 1017.3
20260901104009 23 9 0.0 0.0 0.00 0.00 0.00 97 1017.2
20260901103509 23 15 0.0 0.0 0.00 0.00 0.00 97 1017.1
20260901103025 23 15 0.0 0.0 0.00 0.00 0.00 97 1017.1
20260901102514 23 15 0.0 0.0 0.00 0.00 0.00 97 1017.0
20260901102015 23 15 0.0 0.0 0.00 0.00 0.00 97 1017.0
20260901101530 23 15 0.0 0.0 0.00 0.00 0.00 97 1017.0
20260901101002 23 15 0.0 0.0 0.00 0.00 0.00 97 1017.0
20260901100504 23 15 0.0 0.0 0.00 0.00 0.00 97 1017.0
20260901100013 23 15 0.0 0.0 0.00 0.00 0.00 97 1016.9
20260901095507 23 15 0.0 0.0 0.00 0.00 0.00 97 1016.8
20260901095008 23 15 0.0 0.0 0.00 0.00 0.00 97 1016.7
20260901094519 23 15 0.0 0.0 0.00 0.00 0.00 97 1016.6
20260901094009 23 15 0.0 0.0 0.00 0.00 0.00 97 1016.7
20260901093509 23 15 0.0 0.0 0.00 0.00 0.00 97 1016.6
20260901093026 23 15 0.0 0.0 0.00 0.00 0.00 97 1016.5
20260901092515 23 15 0.0 0.0 0.00 0.00 0.00 97 1016.5
20260901092017 23 15 0.0 0.0 0.00 0.00 0.00 97 1016.6
20260901091532 23 15 0.0 0.0 0.00 0.00 0.00 97 1016.6
20260901091015 23 15 0.0 0.0 0.00 0.00 0.00 97 1016.6
20260901090514 23 15 0.0 0.0 0.00 0.00 0.00 97 1016.5
20260901090025 23 15 0.0 0.0 0.00 0.00 0.00 97 1016.6
20260901085503 23 15 0.0 0.0 0.00 0.00 0.00 97 1016.6
20260901085007 23 15 0.0 0.0 0.00 0.00 0.00 97 1016.6
20260901084516 23 15 0.0 0.0 0.00 0.00 0.00 97 1016.6
20260901084007 23 15 0.0 0.0 0.00 0.00 0.00 97 1016.7
20260901083512 23 15 0.0 0.0 0.00 0.00 0.00 97 1016.6
20260901083033 23 15 0.0 0.0 0.00 0.00 0.00 97 1016.6
20260901082510 23 15 0.0 0.0 0.00 0.00 0.00 96 1016.6
20260901082014 23 15 0.0 0.0 0.00 0.00 0.00 96 1016.7
20260901081527 23 15 0.0 0.0 0.00 0.00 0.00 97 1016.6
20260901081014 23 15 0.0 0.0 0.00 0.00 0.00 97 1016.6
20260901080515 23 15 0.0 0.0 0.00 0.00 0.00 97 1016.6
20260901080033 23 15 0.0 0.0 0.00 0.00 0.00 96 1016.6
20260901075516 23 15 0.0 0.0 0.00 0.00 0.00 96 1016.6
20260901075007 23 15 0.0 0.0 0.00 0.00 0.00 96 1016.7
20260901074522 23 15 0.0 0.0 0.00 0.00 0.00 96 1016.7
20260901074007 23 15 0.0 0.0 0.00 0.00 0.00 96 1016.7
20260901073507 23 15 0.0 0.0 0.00 0.00 0.00 96 1016.7
20260901073034 23 15 0.0 0.0 0.00 0.00 0.00 96 1016.7
20260901072512 23 15 0.0 0.0 0.00 0.00 0.00 96 1016.7
20260901072010 23 15 0.0 0.0 0.00 0.00 0.00 96 1016.8
20260901071528 23 15 0.0 0.0 0.00 0.00 0.00 97 1016.8
20260901071017 23 15 0.0 0.0 0.00 0.00 0.00 96 1016.8
20260901070512 23 64 0.0 0.0 0.00 0.00 0.00 96 1017.0
20260901070032 23 343 0.0 0.0 0.00 0.00 0.00 97 1017.0
20260901065514 23 343 0.0 0.0 0.00 0.00 0.00 97 1016.9
20260901065018 23 90 0.0 0.0 0.00 0.00 0.00 96 1017.0
20260901064538 23 90 0.0 0.0 0.00 0.00 0.00 96 1017.0
20260901064008 23 90 0.0 0.0 0.00 0.00 0.00 96 1017.0
20260901063505 23 90 0.0 0.0 0.00 0.00 0.00 96 1017.1